www.pogodaiklimat.ru

Погода и климат >> Архив погоды >> Ирак >> Кербела


ПОГОДА в Кербеле

  • Прогноз погоды в Кербеле
  • Монитор погоды в Кербеле

АРХИВ ПОГОДЫ в Кербеле

Время (UTC), дата Ветер
(напр.,м/с)
 
Видим.   Явления Облачность Т
(С)
Тd
(С)
f
(%)
Тe
(С)
Тes
(С)
Комфортность P
(гПа)
Po
(гПа)
Тmin
(С)
Tmax
(С)
R
(мм)
R24
(мм)
S
(см)
12 12.06 С 6 10 км ясно +41.7 +5.8 11 +39 +44 очень
жарко
1005.2 1002.0
15 12.06 С 4 10 км ясно +40.1 +6.7 13 +37 +38 очень
жарко
1005.0 1001.8
21 12.06 штиль 0 10 км ясно +34.2 +10.3 23 +33 +33 жарко 1005.7 1002.5
03 13.06 штиль 0 10 км ясно +31.2 +5.9 20 +29 +31 жарко 1005.0 1001.7
06 13.06 СЗ 2 10 км ясно +35.2 +9.0 20 +34 +46 очень
жарко
1006.6 1003.4 +31.0
09 13.06 СЗ 2 10 км ясно +40.2 +8.6 15 +38 +60 опасность
солнечного
удара
1005.5 1002.3
12 13.06 З 2 10 км ясно +42.0 +12.7 18 +42 +55 опасность
перегрева
1003.6 1000.4
15 13.06 З 2 10 км ясно +41.2 +12.3 18 +41 +42 опасность
перегрева
1003.1 999.9
03 14.06 СЗ 2 10 км ясно +29.6 +14.0 39 +32 +32 душно 1003.4 1000.1
06 14.06 штиль 0 10 км ясно +35.0 +10.9 23 +34 +51 опасность
солнечного
удара
1004.2 1001.0 +29.4
09 14.06 штиль 0 10 км ясно +42.0 +9.6 15 +40 +70 опасность
солнечного
удара
1003.4 1000.2
12 14.06 штиль 0 10 км ясно +43.5 +9.0 13 +42 +59 опасность
перегрева
1001.9 998.8
18 14.06 штиль 0 10 км ясно +37.7 +13.7 24 +38 +38 очень
жарко
1001.7 998.5 +44.0
21 14.06 штиль 0 10 км ясно +35.6 +12.9 26 +36 +36 очень
жарко
1000.8 997.6
03 15.06 штиль 0 10 км ясно +31.0 +11.2 30 +31 +32 жарко 1001.6 998.3
06 15.06 СЗ 2 10 км ясно +34.6 +11.8 25 +34 +47 очень
жарко
1002.4 999.2 +30.9
09 15.06 штиль 0 10 км ясно +42.2 +11.4 16 +41 +70 опасность
перегрева
1001.9 998.8
15 15.06 штиль 0 10 км ясно +43.2 +11.7 16 +42 +44 опасность
перегрева
999.8 996.7
21 15.06 штиль 0 10 км ясно +34.3 +16.2 34 +37 +37 очень
душно
1000.7 997.5
03 16.06 В 2 10 км ясно +29.8 +14.1 38 +32 +32 душно 1000.7 997.4
06 16.06 штиль 0 10 км ясно +37.5 +7.7 16 +35 +52 опасность
солнечного
удара
1001.4 998.2 +29.8
09 16.06 З 2 10 км ясно +44.2 +6.8 11 +42 +63 опасность
перегрева
1001.0 997.9
12 16.06 ЮЗ 5 10 км ясно +46.2 +5.9 9 +43 +50 опасность
перегрева
999.4 996.3
15 16.06 З 9 10 км ясно +44.6 +8.5 12 +43 +43 опасность
перегрева
999.2 996.1
18 16.06 З 3 10 км ясно +39.4 +8.2 15 +37 +37 очень
жарко
1000.7 997.5 +46.4
21 16.06 З 3 10 км ясно +35.6 +8.0 18 +34 +34 очень
жарко
1001.7 998.5
06 17.06 СЗ 2 10 км ясно +36.0 +16.3 31 +38 +51 опасность
солнечного
удара
1003.7 1000.5 +31.0
09 17.06 СЗ 2 10 км ясно +41.5 +12.6 18 +41 +63 опасность
перегрева
1001.1 998.0
12 17.06 штиль 0 10 км ясно +43.5 +10.2 14 +42 +60 опасность
перегрева
1004.8 1001.7
15 17.06 С 2 10 км ясно +42.6 +8.3 13 +41 +42 опасность
перегрева
1003.9 1000.8
18 17.06 штиль 0 10 км ясно +38.2 +12.2 21 +38 +38 очень
жарко
1004.9 1001.7 +43.7
21 17.06 штиль 0 10 км ясно +34.5 +15.6 32 +36 +36 душно 1001.2 998.0
06 18.06 З 4 10 км ясно +35.0 +11.4 24 +35 +43 очень
жарко
1008.3 1005.1 +30.2
09 18.06 СЗ 2 10 км ясно +41.0 +1.4 9 +37 +59 опасность
солнечного
удара
1006.9 1003.7
12 18.06 З 4 10 км ясно +42.6 +12.7 17 +42 +51 опасность
перегрева
1004.9 1001.8
15 18.06 З 2 10 км ясно +41.5 +12.1 18 +41 +42 опасность
перегрева
1004.1 1000.9
18 18.06 штиль 0 10 км ясно +39.3 +11.3 19 +38 +38 очень
жарко
1004.8 1001.6 +43.0
21 18.06 штиль 0 10 км ясно +33.7 +12.6 28 +34 +34 очень
жарко
1004.7 1001.5
00 19.06 штиль 0 10 км ясно +31.5 +10.5 27 +31 +31 жарко 1004.8 1001.5
06 19.06 штиль 0 10 км ясно +33.0 +14.3 32 +34 +51 опасность
солнечного
удара
1005.6 1002.3 +29.2
09 19.06 З 2 10 км ясно +38.0 +16.2 28 +40 +62 опасность
солнечного
удара
1005.1 1001.9

 

Местоположение метеостанции Кербела (Ирак): широта 32.62 долгота 44.02 высота над уровнем моря 29 м.

В архиве по умолчанию представлена погода в Кербеле за последнюю неделю. Архивные данные за месяц целиком и за предыдущие месяцы, начиная с января 2011 года, Вы можете получить, выбрав интересующий диапазон дат из раскрывающегося списка и нажав кнопку "Ввод!".


*Определитесь, кто Вы:
робот инопланетянин человек

Внимание! Время в таблицах - всемирное. Для получения местного времени необходимо прибавить поправку, которая равна 3 ч.

Смотрите также архив погоды в соседних городах и на ближайших метеорологических станциях:

Погода в Хелле (Ирак) (45 км)
Погода в Багдаде (Ирак) (71 км)
Погода в Наджафе (Ирак) (77 км)
Погода в Эль-Азизии (Ирак) (104 км)
Погода в Эр-Рамади (Ирак) (113 км)
Погода в Дивании (Ирак) (115 км)
Погода в Хите (Ирак) (115 км)
Погода в Айн Аль-Тамаре (Ирак) (122 км)
Погода в Эль-Халисе (Ирак) (143 км)
Погода в Убайда Бин Аль Джарра (Ирак) (163 км)

Пояснения к столбцам:

Ветер - указаны скорость ветра в м/с - средняя за 10 мин, порывы в срок и между сроками (в фигурных скобках) и направление, откуда дует ветер: С - северный, СВ - северо-восточный, В - восточный, ЮВ - юго-восточный, Ю - южный, ЮЗ - юго-западный, З - западный, СЗ - северо-западный.
Видимость - горизонтальная дальность видимости в метрах или километрах. При видимости от 1 до 10 км при отсутствии осадков обычно наблюдается дымка, при ухудшении видимости до 1 км и менее - туман. В сухую погоду видимость может ухудшаться дымом, пылью или мглою.
Явления - указаны атмосферные явления, наблюдавшиеся в срок или в последний час перед сроком; фигурными скобками обозначены явления, наблюдавшиеся между сроками (за 1-3 часа до срока); квадратными скобками обозначены град или гололедные отложения с указанием их диаметра в мм.
Облачность - указаны через наклонную черту общая и нижняя облачность в баллах и высота нижней границы облаков в метрах; квадратными скобками обозначены формы облаков: Ci - перистые, Cs - перисто-слоистые, Cc - перисто-кучевые, Ac - высококучевые, As - высокослоистые, Sc - слоисто-кучевые, Ns - слоисто-дождевые, Cu - кучевые, Cb - кучево-дождевые. Подробнее классификацию облаков см. в Атласе облаков (PDF).
T - Температура воздуха - температура, измеренная на высоте 2 м над землей.
Td - Температура точки росы - температура, при понижении до которой содержащийся в воздухе водяной пар достигнет насыщения.
f - Относительная влажность воздуха - влажноcть воздуха, измеренная на высоте 2 м над землей.
Te - Эффективная температура - температура, которую ощущает одетый по сезону человек в тени. Характеристика душности погоды. При расчете учитывается влияние влажности воздуха и скорости ветра на теплоощущения человека.
Tes - Эффективная температура на солнце - температура, которую ощущает человек, с поправкой на солнечный нагрев. Характеристика знойности погоды. Зависит от высоты солнца над горизонтом, облачности и скорости ветра. Ночью, в пасмурную погоду, а также при ветре 12 м/с и более поправка равна нулю.
P - Атмосферное давление - приведенное к уровню моря атмосферное давление.
Po - Атмосферное давление - измеренное на уровне метеостанции атмосферное давление.
Tmin - Минимальная температура - минимум температуры воздуха на высоте 2 м над землей.
Tmax - Максимальная температура - максимум температуры воздуха на высоте 2 м над землей.
R - Количество осадков - Количество выпавших осадков за период времени, мм. При наведении курсора мыши на число - период времени, за который выпало указанное количество осадков.
R24 - Количество осадков - Количество выпавших осадков за 24 часа, мм.
S - Снежный покров - Высота снежного покрова, см. При наведении курсора мыши на число - состояние снежного покрова и степень покрытия местности в баллах.